Lapse_Rate
6.7 6.7 6.8 6.5 6.4 6.3 6.2 6.2 6.2 6.2 6.1 6.1 6.1 5.7 5.6 5.7 5.5 5.5 5.2 4.9 4.7 4.7 5.0 5.6 5.7 5.6 5.3
6.9 7.2 6.6 6.9 6.6 6.5 6.4 6.4 6.2 6.2 6.2 6.1 6.1 5.7 5.7 5.8 5.6 5.4 5.0 4.9 4.8 5.0 5.3 5.7 5.9 5.6 5.4
7.3 7.3 7.1 7.2 6.9 6.5 6.6 6.4 6.3 6.4 6.2 6.1 6.0 5.6 5.8 5.8 5.5 5.2 5.0 4.9 4.8 5.4 5.7 5.9 5.8 5.8 5.7
7.4 7.4 7.2 7.2 6.7 6.2 6.6 6.4 6.4 6.4 6.1 6.0 5.7 5.7 5.8 5.6 5.3 5.1 4.8 4.6 5.0 5.6 5.9 5.7 5.8 5.8 5.8
7.3 7.4 7.4 7.3 6.4 6.4 6.4 6.3 6.3 6.3 6.1 5.8 5.7 5.7 5.7 5.6 5.2 5.0 4.7 4.9 5.4 5.9 5.7 5.7 5.9 5.9 6.0
7.5 7.5 7.2 6.5 6.9 6.5 6.2 6.2 6.2 6.4 6.1 5.6 5.7 5.6 5.6 5.5 5.2 4.8 5.0 5.3 5.7 6.1 5.7 5.7 5.8 5.9 6.1
7.2 7.4 6.9 6.8 6.6 6.5 6.3 6.2 6.1 6.0 5.8 5.4 5.6 5.4 5.4 5.3 5.0 4.8 5.2 5.7 6.2 6.2 6.1 5.8 5.8 5.8 5.9
6.8 6.9 6.4 6.6 6.9 6.7 6.4 5.9 5.9 5.8 5.6 5.5 5.5 5.4 5.3 5.1 4.7 4.8 5.3 6.0 6.3 6.1 6.1 5.9 5.8 5.8 5.7
6.4 6.6 6.5 6.5 7.0 6.7 6.3 6.0 5.7 5.7 5.5 5.6 5.3 5.3 5.1 4.9 4.5 4.9 5.4 6.1 5.9 5.8 5.8 5.8 5.8 5.9 5.7
6.0 6.2 6.2 6.6 6.7 6.6 6.3 5.7 5.7 5.7 5.6 5.5 5.3 5.2 5.2 4.7 4.3 5.0 5.5 5.9 5.6 5.5 5.6 6.0 6.1 6.2 5.9
5.8 6.1 6.1 6.3 6.3 6.4 6.1 5.7 5.7 5.3 5.6 5.4 5.1 5.0 4.7 4.7 4.8 5.2 5.5 5.7 5.8 5.8 5.6 5.8 6.1 6.1 6.1
5.9 6.0 6.3 6.1 5.9 6.2 5.8 5.8 5.6 5.2 5.5 5.3 5.1 4.8 4.4 5.0 5.4 5.6 6.0 5.9 6.0 5.9 5.8 5.8 6.2 6.4 6.4
6.0 5.9 6.2 5.6 5.7 5.9 5.8 5.9 5.1 5.6 5.3 5.1 5.0 4.7 4.6 5.2 5.8 5.6 5.9 6.2 6.1 6.1 6.1 5.9 6.5 6.7 6.8
5.9 6.3 5.8 5.7 5.8 5.6 5.8 5.7 5.2 5.5 5.2 5.0 4.9 4.7 5.2 5.5 5.8 6.0 5.7 5.6 5.8 5.9 6.3 6.1 6.6 6.8 6.7
5.8 6.2 5.8 5.6 5.6 5.7 5.8 4.9 5.5 5.3 5.1 5.1 4.8 5.1 5.5 5.6 5.8 5.9 5.4 5.5 5.9 6.5 6.8 6.3 6.4 7.0 6.8
6.2 6.0 5.7 5.6 5.7 5.7 5.5 5.4 5.4 5.1 4.9 4.7 4.6 5.0 5.1 5.1 5.2 5.9 5.8 6.0 6.3 6.6 6.7 6.9 6.4 6.8 7.0
6.1 6.0 5.6 5.6 5.6 5.6 4.9 5.5 5.2 5.0 4.9 4.7 5.0 5.5 5.8 6.0 5.7 6.1 6.6 6.5 6.4 6.3 6.5 6.4 6.6 6.6 6.5
Wind_Speed
9 5 6 6 5 4 5 5 5 2 3 4 8 8 11 12 11 13 15 16 16 16 17 18 18 18 20
9 7 8 4 5 6 6 6 4 2 3 5 5 9 9 8 12 14 14 15 16 17 18 19 20 20 21
6 4 2 4 6 6 7 6 4 2 4 4 6 9 11 12 13 13 14 16 17 17 17 17 19 20 21
5 4 2 3 5 7 6 6 5 3 3 7 6 12 14 12 13 12 15 15 16 15 17 18 19 20 21
4 3 4 3 8 5 5 4 5 3 3 5 5 6 6 10 11 11 14 15 14 15 18 19 19 20 22
7 6 8 5 6 6 5 3 3 3 3 6 5 6 6 7 10 15 15 14 14 17 19 20 20 22 23
9 8 8 9 9 8 6 5 4 2 3 6 3 6 6 7 13 14 15 14 15 18 18 21 22 22 21
7 7 5 10 9 7 7 5 2 3 3 4 3 7 7 7 10 12 12 15 17 18 19 21 19 18 19
13 16 17 16 13 9 6 5 3 4 4 5 5 8 7 6 5 8 14 17 16 18 19 18 17 17 14
12 13 13 12 13 5 6 6 3 3 4 3 4 5 4 3 4 8 7 11 14 18 17 16 16 8 9
9 8 8 8 6 5 6 5 5 3 4 2 3 4 3 5 7 8 7 8 9 9 12 14 15 13 9
8 7 8 7 6 6 6 3 3 3 2 3 3 4 5 7 7 6 8 9 8 8 8 12 16 15 15
7 6 6 7 8 7 5 4 4 5 5 5 6 6 6 7 9 11 8 7 9 7 9 10 10 8 9
9 7 7 8 6 5 4 4 4 4 6 7 7 7 8 9 9 11 9 6 8 10 10 10 10 9 9
9 8 8 7 6 5 4 4 4 3 3 4 4 7 9 11 8 8 8 8 9 10 11 11 10 10 10
8 8 8 7 7 6 4 4 3 3 3 3 5 7 5 6 13 8 7 9 9 11 11 11 11 10 9
9 8 8 7 9 6 5 4 3 3 3 2 3 4 6 6 5 17 9 10 10 11 10 10 12 11 10
Wind_Direction
248 224 187 195 177 194 190 232 219 75 327 302 303 301 306 303 305 305 304 302 301 303 306 302 300 302 298
227 196 211 200 198 201 217 223 240 183 287 296 283 297 290 287 297 295 300 299 296 299 299 299 305 304 293
216 175 167 173 206 221 218 228 240 203 257 244 274 279 277 281 291 292 298 294 290 291 295 303 303 301 301
207 170 172 158 216 228 216 225 256 251 248 268 274 276 274 271 283 290 294 286 286 294 300 303 302 300 301
190 176 174 169 204 201 223 233 246 249 262 269 269 267 262 270 272 277 288 287 286 297 300 302 302 299 296
189 204 195 193 180 185 199 218 254 176 272 274 245 260 272 274 292 292 284 276 291 298 301 299 299 298 295
182 193 175 179 164 166 183 209 229 174 268 278 234 260 278 281 282 276 268 273 291 299 298 299 296 296 297
175 156 141 154 156 157 167 177 190 217 225 266 263 278 293 289 269 259 266 282 290 291 296 298 295 293 292
114 125 133 137 138 132 149 165 206 213 187 271 283 306 301 277 248 245 283 289 291 294 293 291 291 294 290
122 118 121 131 140 149 150 159 179 223 169 251 297 343 318 271 273 296 294 290 294 291 292 284 290 289 285
135 133 131 143 149 149 146 150 183 237 132 229 290 301 283 299 303 297 296 302 300 294 279 278 280 281 282
144 148 147 154 156 150 140 164 216 236 170 161 254 270 286 295 281 310 312 304 294 293 285 293 288 281 271
147 143 157 140 146 134 136 177 235 243 234 227 241 258 265 265 280 296 314 304 296 281 297 296 296 293 285
132 133 144 138 153 145 164 189 226 204 206 231 236 248 266 265 275 286 293 287 301 297 299 297 291 284 276
130 142 156 144 146 155 179 185 229 216 236 229 254 279 269 267 277 267 274 283 294 299 300 296 292 283 276
140 154 150 148 145 168 174 206 210 221 262 294 319 319 301 248 221 263 277 293 299 302 296 290 290 288 282
143 147 144 139 154 169 178 191 201 233 268 299 301 320 325 318 296 217 278 295 301 296 290 292 289 288 289